| time (UTC) | temp F | wind direction | speed MPH | gust MPH | rain 1hr in | rain 24hr in | rain mn in | humidity % | barometer mb |
| 20260831211819 | 87 | 303 | 2.0 | 9.0 | 0.00 | 0.06 | 0.05 | 55 | 1015.6 |
| 20260831210816 | 87 | 303 | 3.0 | 6.0 | 0.00 | 0.06 | 0.05 | 54 | 1016.0 |
| 20260831205847 | 85 | 303 | 4.0 | 12.0 | 0.00 | 0.06 | 0.05 | 57 | 1016.1 |
| 20260831204821 | 86 | 303 | 2.0 | 6.0 | 0.00 | 0.06 | 0.05 | 57 | 1016.3 |
| 20260831203813 | 85 | 303 | 4.0 | 10.0 | 0.00 | 0.06 | 0.05 | 57 | 1016.4 |
| 20260831202845 | 85 | 303 | 3.0 | 9.0 | 0.00 | 0.06 | 0.05 | 59 | 1016.5 |
| 20260831201817 | 84 | 303 | 1.0 | 10.0 | 0.00 | 0.06 | 0.05 | 61 | 1016.5 |
| 20260831200813 | 84 | 303 | 3.0 | 8.0 | 0.00 | 0.06 | 0.05 | 61 | 1016.6 |
| 20260831195826 | 83 | 303 | 2.0 | 10.0 | 0.00 | 0.06 | 0.05 | 66 | 1016.6 |
| 20260831194818 | 81 | 303 | 2.0 | 6.0 | 0.00 | 0.06 | 0.05 | 70 | 1016.7 |
| 20260831193850 | 80 | 303 | 3.0 | 6.0 | 0.00 | 0.06 | 0.05 | 71 | 1016.6 |
| 20260831192821 | 79 | 303 | 3.0 | 9.0 | 0.00 | 0.06 | 0.05 | 70 | 1016.9 |
| 20260831191814 | 79 | 303 | 1.0 | 8.0 | 0.00 | 0.06 | 0.05 | 73 | 1016.8 |
| 20260831190831 | 78 | 303 | 1.0 | 8.0 | 0.00 | 0.06 | 0.05 | 75 | 1016.8 |
| 20260831185823 | 79 | 303 | 3.0 | 13.0 | 0.00 | 0.06 | 0.05 | 76 | 1016.8 |
| 20260831184816 | 78 | 303 | 1.0 | 6.0 | 0.00 | 0.06 | 0.05 | 76 | 1017.1 |
| 20260831183827 | 78 | 303 | 2.0 | 6.0 | 0.00 | 0.06 | 0.05 | 75 | 1016.8 |
| 20260831182819 | 78 | 303 | 1.0 | 4.0 | 0.00 | 0.06 | 0.05 | 78 | 1016.8 |
| 20260831181817 | 78 | 303 | 1.0 | 8.0 | 0.00 | 0.06 | 0.05 | 80 | 1016.9 |
| 20260831180831 | 77 | 303 | 1.0 | 3.0 | 0.00 | 0.06 | 0.05 | 82 | 1017.1 |
| 20260831175825 | 77 | 303 | 1.0 | 4.0 | 0.00 | 0.06 | 0.05 | 83 | 1017.2 |
| 20260831174819 | 76 | 303 | 1.0 | 5.0 | 0.00 | 0.06 | 0.05 | 84 | 1017.3 |
| 20260831173816 | 76 | 303 | 3.0 | 6.0 | 0.00 | 0.06 | 0.05 | 85 | 1017.4 |
| 20260831172830 | 76 | 303 | 1.0 | 4.0 | 0.00 | 0.06 | 0.05 | 86 | 1017.7 |
| 20260831171823 | 76 | 303 | 1.0 | 3.0 | 0.00 | 0.06 | 0.05 | 87 | 1017.6 |
| 20260831170816 | 76 | 303 | 1.0 | 4.0 | 0.00 | 0.06 | 0.05 | 88 | 1017.3 |
| 20260831165829 | 75 | 303 | 1.0 | 5.0 | 0.00 | 0.06 | 0.05 | 88 | 1017.1 |
| 20260831164826 | 75 | 303 | 2.0 | 8.0 | 0.00 | 0.06 | 0.05 | 88 | 1017.2 |
| 20260831163817 | 75 | 303 | 1.0 | 4.0 | 0.00 | 0.06 | 0.05 | 88 | 1017.2 |
| 20260831162830 | 75 | 303 | 2.0 | 4.0 | 0.00 | 0.06 | 0.05 | 88 | 1017.2 |
| 20260831161823 | 75 | 303 | 0.0 | 3.0 | 0.01 | 0.06 | 0.05 | 88 | 1017.2 |
| 20260831160815 | 75 | 303 | 1.0 | 5.0 | 0.01 | 0.06 | 0.05 | 88 | 1016.9 |
| 20260831155833 | 74 | 303 | 3.0 | 6.0 | 0.01 | 0.06 | 0.05 | 87 | 1016.8 |
| 20260831154826 | 74 | 303 | 1.0 | 4.0 | 0.02 | 0.06 | 0.05 | 86 | 1017.1 |
| 20260831153840 | 75 | 303 | 0.0 | 2.0 | 0.02 | 0.06 | 0.05 | 87 | 1017.3 |
| 20260831152831 | 75 | 303 | 0.0 | 0.0 | 0.04 | 0.06 | 0.05 | 86 | 1017.4 |
| 20260831151824 | 75 | 303 | 0.0 | 2.0 | 0.04 | 0.05 | 0.04 | 85 | 1017.3 |
| 20260831150814 | 75 | 303 | 1.0 | 5.0 | 0.04 | 0.05 | 0.04 | 84 | 1017.1 |
| 20260831145831 | 76 | 303 | 0.0 | 4.0 | 0.04 | 0.05 | 0.04 | 84 | 1016.9 |
| 20260831144823 | 76 | 303 | 0.0 | 2.0 | 0.03 | 0.04 | 0.03 | 82 | 1016.9 |
| 20260831143818 | 77 | 303 | 1.0 | 3.0 | 0.02 | 0.03 | 0.02 | 79 | 1016.7 |
| 20260831142831 | 78 | 303 | 3.0 | 10.0 | 0.01 | 0.02 | 0.01 | 76 | 1016.3 |
| 20260831141822 | 78 | 303 | 3.0 | 9.0 | 0.00 | 0.01 | 0.00 | 72 | 1016.1 |
| 20260831140819 | 79 | 303 | 4.0 | 10.0 | 0.00 | 0.01 | 0.00 | 71 | 1015.8 |
| 20260831135832 | 79 | 303 | 5.0 | 13.0 | 0.00 | 0.01 | 0.00 | 70 | 1015.5 |
| 20260831134828 | 80 | 303 | 5.0 | 10.0 | 0.00 | 0.01 | 0.00 | 69 | 1015.3 |
| 20260831133820 | 81 | 303 | 2.0 | 9.0 | 0.00 | 0.01 | 0.00 | 66 | 1015.1 |
| 20260831132832 | 81 | 303 | 2.0 | 9.0 | 0.00 | 0.01 | 0.00 | 64 | 1014.8 |
| 20260831131847 | 81 | 303 | 2.0 | 5.0 | 0.00 | 0.01 | 0.00 | 64 | 1014.4 |
| 20260831130824 | 80 | 303 | 1.0 | 4.0 | 0.00 | 0.01 | 0.00 | 65 | 1014.2 |
| 20260831125818 | 80 | 303 | 0.0 | 2.0 | 0.00 | 0.01 | 0.00 | 66 | 1014.0 |
| 20260831124830 | 80 | 303 | 0.0 | 2.0 | 0.00 | 0.01 | 0.00 | 66 | 1014.0 |
| 20260831123844 | 81 | 303 | 0.0 | 3.0 | 0.00 | 0.01 | 0.00 | 66 | 1013.9 |
| 20260831122816 | 81 | 303 | 0.0 | 3.0 | 0.00 | 0.01 | 0.00 | 65 | 1013.7 |
| 20260831121853 | 81 | 303 | 1.0 | 4.0 | 0.00 | 0.01 | 0.00 | 65 | 1013.5 |
| 20260831120821 | 81 | 303 | 1.0 | 4.0 | 0.00 | 0.01 | 0.00 | 66 | 1013.3 |
| 20260831115853 | 81 | 303 | 2.0 | 4.0 | 0.00 | 0.01 | 0.00 | 65 | 1013.1 |
| 20260831114826 | 81 | 303 | 0.0 | 2.0 | 0.00 | 0.01 | 0.00 | 63 | 1013.1 |
| 20260831113821 | 81 | 303 | 0.0 | 2.0 | 0.00 | 0.01 | 0.00 | 62 | 1012.8 |
| 20260831112816 | 81 | 303 | 0.0 | 1.0 | 0.00 | 0.01 | 0.00 | 60 | 1012.7 |
| 20260831111827 | 81 | 303 | 0.0 | 3.0 | 0.00 | 0.01 | 0.00 | 60 | 1012.5 |
| 20260831110818 | 81 | 303 | 3.0 | 5.0 | 0.00 | 0.01 | 0.00 | 60 | 1012.5 |
| 20260831105831 | 81 | 303 | 1.0 | 5.0 | 0.00 | 0.01 | 0.00 | 61 | 1012.6 |
| 20260831104845 | 81 | 303 | 1.0 | 3.0 | 0.00 | 0.01 | 0.00 | 60 | 1012.3 |
| 20260831103818 | 81 | 303 | 1.0 | 2.0 | 0.00 | 0.01 | 0.00 | 60 | 1012.0 |
| 20260831102813 | 81 | 303 | 1.0 | 2.0 | 0.00 | 0.01 | 0.00 | 60 | 1011.7 |
| 20260831101826 | 81 | 303 | 0.0 | 2.0 | 0.00 | 0.01 | 0.00 | 59 | 1011.4 |
| 20260831100818 | 81 | 303 | 1.0 | 5.0 | 0.00 | 0.01 | 0.00 | 59 | 1011.5 |
| 20260831095852 | 81 | 303 | 0.0 | 2.0 | 0.00 | 0.01 | 0.00 | 60 | 1011.8 |
| 20260831094825 | 81 | 303 | 3.0 | 5.0 | 0.00 | 0.01 | 0.00 | 60 | 1011.7 |
| 20260831093822 | 81 | 303 | 1.0 | 4.0 | 0.00 | 0.01 | 0.00 | 60 | 1011.8 |
| 20260831092814 | 81 | 303 | 1.0 | 5.0 | 0.00 | 0.01 | 0.00 | 60 | 1012.0 |
| 20260831091826 | 81 | 303 | 2.0 | 5.0 | 0.00 | 0.01 | 0.00 | 60 | 1012.0 |
| 20260831090817 | 80 | 303 | 2.0 | 5.0 | 0.00 | 0.01 | 0.00 | 62 | 1012.2 |
| 20260831085828 | 81 | 303 | 2.0 | 6.0 | 0.00 | 0.01 | 0.00 | 63 | 1012.4 |
| 20260831084840 | 81 | 303 | 4.0 | 10.0 | 0.00 | 0.01 | 0.00 | 63 | 1012.5 |
| 20260831083816 | 81 | 303 | 2.0 | 9.0 | 0.00 | 0.01 | 0.00 | 64 | 1012.4 |
| 20260831082829 | 81 | 303 | 3.0 | 6.0 | 0.00 | 0.01 | 0.00 | 63 | 1012.8 |
| 20260831081823 | 81 | 303 | 1.0 | 6.0 | 0.00 | 0.01 | 0.00 | 62 | 1012.8 |
| 20260831080814 | 82 | 303 | 1.0 | 5.0 | 0.00 | 0.01 | 0.00 | 61 | 1012.8 |
| 20260831075826 | 82 | 303 | 1.0 | 2.0 | 0.00 | 0.01 | 0.00 | 63 | 1012.9 |
| 20260831074824 | 82 | 303 | 1.0 | 5.0 | 0.00 | 0.01 | 0.00 | 63 | 1012.9 |
| 20260831073816 | 82 | 303 | 1.0 | 3.0 | 0.00 | 0.01 | 0.00 | 64 | 1012.7 |
| 20260831072830 | 83 | 303 | 0.0 | 3.0 | 0.00 | 0.01 | 0.00 | 65 | 1012.7 |
| 20260831071825 | 82 | 303 | 1.0 | 5.0 | 0.00 | 0.01 | 0.00 | 64 | 1012.6 |
| 20260831070818 | 82 | 303 | 2.0 | 8.0 | 0.00 | 0.01 | 0.00 | 64 | 1012.4 |
| 20260831065815 | 82 | 303 | 2.0 | 9.0 | 0.00 | 0.01 | 0.01 | 65 | 1012.6 |
| 20260831064828 | 83 | 303 | 2.0 | 10.0 | 0.00 | 0.01 | 0.01 | 65 | 1012.2 |
| 20260831063823 | 83 | 303 | 2.0 | 10.0 | 0.00 | 0.01 | 0.01 | 65 | 1011.9 |
| 20260831062815 | 83 | 303 | 2.0 | 11.0 | 0.00 | 0.01 | 0.01 | 62 | 1011.8 |
| 20260831061827 | 83 | 303 | 3.0 | 10.0 | 0.00 | 0.01 | 0.01 | 60 | 1011.6 |
| 20260831060845 | 82 | 303 | 4.0 | 9.0 | 0.00 | 0.01 | 0.01 | 62 | 1011.5 |
| 20260831055817 | 81 | 303 | 1.0 | 5.0 | 0.00 | 0.01 | 0.01 | 66 | 1011.6 |
| 20260831054849 | 81 | 303 | 1.0 | 2.0 | 0.00 | 0.01 | 0.01 | 66 | 1011.0 |
| 20260831053823 | 82 | 303 | 1.0 | 6.0 | 0.00 | 0.01 | 0.01 | 66 | 1010.9 |
| 20260831052814 | 83 | 303 | 5.0 | 10.0 | 0.00 | 0.01 | 0.01 | 64 | 1011.0 |
| 20260831051826 | 84 | 303 | 2.0 | 8.0 | 0.01 | 0.01 | 0.01 | 63 | 1010.8 |
| 20260831050822 | 84 | 303 | 3.0 | 8.0 | 0.01 | 0.01 | 0.01 | 61 | 1011.0 |
| 20260831045835 | 83 | 303 | 3.0 | 8.0 | 0.01 | 0.01 | 0.01 | 62 | 1011.4 |
| 20260831044828 | 82 | 303 | 6.0 | 10.0 | 0.01 | 0.01 | 0.01 | 65 | 1011.6 |
| 20260831043822 | 82 | 303 | 5.0 | 10.0 | 0.01 | 0.01 | 0.01 | 66 | 1011.4 |
| 20260831042855 | 84 | 303 | 8.0 | 12.0 | 0.01 | 0.01 | 0.01 | 63 | 1011.2 |
| 20260831041831 | 88 | 303 | 4.0 | 9.0 | 0.00 | 0.00 | 0.00 | 58 | 1011.1 |
| 20260831040825 | 90 | 303 | 6.0 | 12.0 | 0.00 | 0.00 | 0.00 | 50 | 1010.9 |
| 20260831035818 | 92 | 303 | 4.0 | 12.0 | 0.00 | 0.00 | 0.00 | 45 | 1010.9 |
| 20260831034832 | 95 | 303 | 5.0 | 11.0 | 0.00 | 0.00 | 0.00 | 40 | 1010.7 |
| 20260831033821 | 99 | 303 | 3.0 | 11.0 | 0.00 | 0.00 | 0.00 | 36 | 1010.4 |
| 20260831032849 | 101 | 303 | 1.0 | 4.0 | 0.00 | 0.00 | 0.00 | 32 | 1009.4 |